| time (UTC) | temp F | wind direction | speed knots | gust knots | rain 1hr in | rain 24hr in | rain mn in | humidity % | barometer mb |
| 20260504004705 | 45 | 273 | 0.0 | 0.0 | 0.00 | 0.00 | 0.00 | 62 | 1005.7 |
| 20260504004204 | 45 | 273 | 0.0 | 1.7 | 0.00 | 0.00 | 0.00 | 61 | 1005.6 |
| 20260504002704 | 46 | 273 | 0.0 | 0.0 | 0.00 | 0.00 | 0.00 | 59 | 1005.5 |
| 20260504002204 | 46 | 273 | 0.0 | 1.7 | 0.00 | 0.00 | 0.00 | 58 | 1005.5 |
| 20260504000704 | 47 | 273 | 0.9 | 1.7 | 0.00 | 0.00 | 0.00 | 55 | 1005.4 |
| 20260504000205 | 48 | 273 | 0.0 | 1.7 | 0.00 | 0.00 | 0.00 | 54 | 1005.4 |
| 20260503234704 | 49 | 273 | 0.0 | 0.0 | 0.00 | 0.00 | 0.00 | 52 | 1005.5 |
| 20260503234204 | 49 | 273 | 0.0 | 0.9 | 0.00 | 0.00 | 0.00 | 52 | 1005.5 |
| 20260503232705 | 50 | 273 | 0.0 | 0.9 | 0.00 | 0.00 | 0.00 | 49 | 1005.5 |
| 20260503232204 | 50 | 273 | 0.0 | 1.7 | 0.00 | 0.00 | 0.00 | 49 | 1005.5 |
| 20260503230705 | 50 | 273 | 0.9 | 1.7 | 0.00 | 0.00 | 0.00 | 47 | 1005.5 |
| 20260503230204 | 50 | 273 | 0.9 | 1.7 | 0.00 | 0.00 | 0.00 | 47 | 1005.5 |
| 20260503224705 | 51 | 273 | 0.9 | 1.7 | 0.00 | 0.00 | 0.00 | 45 | 1005.6 |
| 20260503224204 | 51 | 273 | 1.7 | 2.6 | 0.00 | 0.00 | 0.00 | 46 | 1005.6 |
| 20260503222705 | 50 | 273 | 0.0 | 2.6 | 0.00 | 0.00 | 0.00 | 47 | 1005.6 |
| 20260503222205 | 50 | 273 | 1.7 | 4.3 | 0.00 | 0.00 | 0.00 | 47 | 1005.6 |
| 20260503220704 | 50 | 294 | 0.9 | 2.6 | 0.00 | 0.00 | 0.00 | 46 | 1005.7 |
| 20260503220205 | 50 | 320 | 1.7 | 5.2 | 0.00 | 0.00 | 0.00 | 48 | 1005.7 |
| 20260503214704 | 50 | 299 | 2.6 | 4.3 | 0.00 | 0.00 | 0.00 | 46 | 1005.7 |
| 20260503214205 | 50 | 277 | 0.9 | 4.3 | 0.00 | 0.00 | 0.00 | 48 | 1005.8 |
| 20260503212705 | 50 | 287 | 3.5 | 6.1 | 0.00 | 0.01 | 0.00 | 47 | 1005.8 |
| 20260503212204 | 50 | 292 | 2.6 | 6.1 | 0.00 | 0.01 | 0.00 | 46 | 1005.9 |
| 20260503210704 | 51 | 269 | 0.9 | 4.3 | 0.00 | 0.01 | 0.00 | 46 | 1005.9 |
| 20260503210204 | 51 | 264 | 2.6 | 6.1 | 0.00 | 0.01 | 0.00 | 46 | 1005.8 |
| 20260503204704 | 51 | 276 | 2.6 | 4.3 | 0.00 | 0.01 | 0.00 | 46 | 1005.9 |
| 20260503204204 | 51 | 298 | 2.6 | 7.8 | 0.00 | 0.01 | 0.00 | 45 | 1005.9 |
| 20260503202705 | 51 | 320 | 1.7 | 5.2 | 0.00 | 0.01 | 0.00 | 48 | 1005.9 |
| 20260503202205 | 51 | 311 | 2.6 | 7.0 | 0.00 | 0.01 | 0.00 | 48 | 1006.0 |
| 20260503200704 | 50 | 281 | 2.6 | 6.1 | 0.00 | 0.01 | 0.00 | 49 | 1006.1 |
| 20260503200205 | 50 | 293 | 3.5 | 10.4 | 0.00 | 0.01 | 0.00 | 49 | 1006.2 |
| 20260503194704 | 49 | 255 | 2.6 | 8.7 | 0.00 | 0.01 | 0.00 | 51 | 1006.2 |
| 20260503194205 | 49 | 276 | 1.7 | 7.8 | 0.00 | 0.01 | 0.00 | 52 | 1006.3 |
| 20260503192705 | 49 | 260 | 2.6 | 5.2 | 0.00 | 0.01 | 0.00 | 51 | 1006.5 |
| 20260503192204 | 49 | 276 | 3.5 | 10.4 | 0.00 | 0.01 | 0.00 | 50 | 1006.5 |
| 20260503190704 | 49 | 311 | 5.2 | 11.3 | 0.00 | 0.01 | 0.00 | 50 | 1006.7 |
| 20260503190205 | 49 | 273 | 2.6 | 8.7 | 0.00 | 0.01 | 0.00 | 50 | 1006.7 |
| 20260503184704 | 49 | 296 | 2.6 | 5.2 | 0.00 | 0.01 | 0.00 | 50 | 1006.8 |
| 20260503184204 | 49 | 290 | 4.3 | 11.3 | 0.00 | 0.01 | 0.00 | 50 | 1006.9 |
| 20260503182705 | 48 | 296 | 2.6 | 6.1 | 0.00 | 0.01 | 0.00 | 51 | 1006.9 |
| 20260503182205 | 48 | 282 | 3.5 | 13.0 | 0.00 | 0.01 | 0.00 | 50 | 1007.0 |
| 20260503180705 | 49 | 276 | 2.6 | 6.1 | 0.00 | 0.01 | 0.00 | 50 | 1007.0 |
| 20260503180205 | 49 | 288 | 5.2 | 13.0 | 0.00 | 0.01 | 0.00 | 49 | 1007.0 |
| 20260503174705 | 49 | 295 | 4.3 | 7.8 | 0.00 | 0.01 | 0.00 | 48 | 1007.1 |
| 20260503174204 | 50 | 292 | 7.8 | 14.8 | 0.00 | 0.02 | 0.00 | 47 | 1007.1 |
| 20260503172705 | 50 | 289 | 3.5 | 10.4 | 0.00 | 0.02 | 0.00 | 51 | 1007.2 |
| 20260503172204 | 50 | 285 | 4.3 | 14.8 | 0.00 | 0.02 | 0.00 | 49 | 1007.3 |
| 20260503170705 | 50 | 294 | 5.2 | 11.3 | 0.00 | 0.02 | 0.00 | 47 | 1007.5 |
| 20260503170205 | 50 | 301 | 5.2 | 13.0 | 0.00 | 0.02 | 0.00 | 49 | 1007.5 |
| 20260503160204 | 49 | 283 | 4.3 | 13.0 | 0.00 | 0.02 | 0.00 | 47 | 1008.2 |
| 20260503150704 | 50 | 286 | 5.2 | 10.4 | 0.00 | 0.02 | 0.00 | 50 | 1008.6 |
| 20260503150204 | 49 | 294 | 2.6 | 7.0 | 0.00 | 0.02 | 0.00 | 50 | 1008.6 |
| 20260503140204 | 48 | 294 | 3.5 | 7.8 | 0.00 | 0.02 | 0.00 | 51 | 1009.4 |
| 20260503130704 | 46 | 0 | 4.3 | 7.0 | 0.00 | 0.02 | 0.00 | 61 | 1009.9 |
| 20260503130204 | 46 | 24 | 2.6 | 6.1 | 0.00 | 0.02 | 0.00 | 62 | 1009.9 |
| 20260503120204 | 43 | 11 | 1.7 | 6.1 | 0.00 | 0.02 | 0.00 | 74 | 1010.0 |
| 20260503110704 | 40 | 235 | 1.7 | 2.6 | 0.00 | 0.02 | 0.00 | 86 | 1010.0 |
| 20260503110204 | 39 | 227 | 1.7 | 2.6 | 0.00 | 0.02 | 0.00 | 87 | 1009.9 |
| 20260503100203 | 35 | 213 | 0.0 | 0.0 | 0.00 | 0.02 | 0.00 | 91 | 1009.8 |
| 20260503090204 | 37 | 213 | 0.0 | 0.9 | 0.00 | 0.02 | 0.00 | 90 | 1009.8 |
| 20260503080704 | 39 | 213 | 0.9 | 1.7 | 0.00 | 0.02 | 0.00 | 90 | 1009.9 |
| 20260503080204 | 39 | 213 | 0.0 | 1.7 | 0.00 | 0.02 | 0.00 | 89 | 1009.9 |
| 20260503072705 | 39 | 213 | 0.0 | 1.7 | 0.00 | 0.02 | 0.00 | 89 | 1009.9 |
| 20260503072204 | 39 | 213 | 0.9 | 1.7 | 0.00 | 0.02 | 0.00 | 89 | 1009.9 |
| 20260503070705 | 40 | 213 | 0.0 | 0.9 | 0.00 | 0.02 | 0.00 | 88 | 1010.0 |
| 20260503070205 | 40 | 213 | 0.0 | 2.6 | 0.00 | 0.02 | 0.00 | 88 | 1010.0 |
| 20260503060205 | 41 | 213 | 0.9 | 2.6 | 0.00 | 0.02 | 0.00 | 87 | 1010.1 |
| 20260503054706 | 41 | 213 | 0.0 | 1.7 | 0.00 | 0.02 | 0.00 | 87 | 1010.1 |
| 20260503054205 | 41 | 213 | 0.9 | 2.6 | 0.00 | 0.02 | 0.00 | 88 | 1010.1 |
| 20260503052705 | 41 | 213 | 0.9 | 2.6 | 0.00 | 0.02 | 0.00 | 89 | 1010.3 |
| 20260503052205 | 41 | 213 | 1.7 | 2.6 | 0.00 | 0.02 | 0.00 | 89 | 1010.2 |
| 20260503050705 | 41 | 212 | 0.0 | 1.7 | 0.00 | 0.02 | 0.00 | 90 | 1010.3 |
| 20260503050205 | 41 | 212 | 0.9 | 1.7 | 0.00 | 0.02 | 0.00 | 89 | 1010.3 |
| 20260503044705 | 41 | 212 | 1.7 | 2.6 | 0.00 | 0.02 | 0.00 | 89 | 1010.5 |
| 20260503044205 | 40 | 212 | 0.0 | 0.0 | 0.00 | 0.02 | 0.00 | 89 | 1010.5 |
| 20260503042704 | 41 | 212 | 0.0 | 0.0 | 0.00 | 0.02 | 0.00 | 88 | 1010.7 |
| 20260503042205 | 41 | 212 | 0.0 | 0.9 | 0.00 | 0.02 | 0.00 | 88 | 1010.7 |
| 20260503040705 | 41 | 212 | 0.9 | 2.6 | 0.00 | 0.02 | 0.00 | 87 | 1010.9 |
| 20260503040205 | 41 | 212 | 0.9 | 2.6 | 0.00 | 0.02 | 0.00 | 87 | 1010.8 |
| 20260503034705 | 42 | 212 | 0.0 | 0.9 | 0.00 | 0.02 | 0.02 | 86 | 1010.8 |
| 20260503034205 | 42 | 212 | 0.0 | 0.9 | 0.00 | 0.02 | 0.02 | 86 | 1010.8 |
| 20260503032705 | 42 | 212 | 0.0 | 0.9 | 0.00 | 0.02 | 0.02 | 85 | 1010.7 |
| 20260503032205 | 42 | 212 | 0.0 | 1.7 | 0.00 | 0.02 | 0.02 | 85 | 1010.8 |
| 20260503030705 | 42 | 212 | 0.0 | 0.0 | 0.00 | 0.02 | 0.02 | 85 | 1011.0 |
| 20260503030205 | 42 | 212 | 0.0 | 0.0 | 0.00 | 0.02 | 0.02 | 84 | 1011.0 |
| 20260503024705 | 43 | 212 | 0.0 | 0.0 | 0.00 | 0.02 | 0.02 | 84 | 1011.0 |
| 20260503024204 | 43 | 212 | 0.0 | 1.7 | 0.00 | 0.02 | 0.02 | 84 | 1011.1 |
| 20260503022705 | 43 | 212 | 0.9 | 2.6 | 0.00 | 0.02 | 0.02 | 83 | 1011.2 |
| 20260503022205 | 43 | 212 | 0.0 | 1.7 | 0.00 | 0.02 | 0.02 | 83 | 1011.2 |
| 20260503020704 | 43 | 212 | 0.9 | 1.7 | 0.00 | 0.02 | 0.02 | 83 | 1011.3 |
| 20260503020205 | 43 | 212 | 1.7 | 2.6 | 0.00 | 0.02 | 0.02 | 83 | 1011.3 |
| 20260503014704 | 43 | 212 | 1.7 | 4.3 | 0.00 | 0.02 | 0.02 | 83 | 1011.2 |
| 20260503014204 | 43 | 202 | 2.6 | 2.6 | 0.00 | 0.02 | 0.02 | 84 | 1011.2 |
| 20260503012704 | 43 | 178 | 0.9 | 2.6 | 0.00 | 0.02 | 0.02 | 83 | 1010.9 |
| 20260503012205 | 43 | 178 | 0.9 | 2.6 | 0.00 | 0.02 | 0.02 | 83 | 1011.0 |
| 20260503010705 | 43 | 178 | 1.7 | 2.6 | 0.00 | 0.02 | 0.02 | 82 | 1011.0 |
| 20260503010205 | 43 | 178 | 1.7 | 2.6 | 0.00 | 0.02 | 0.02 | 82 | 1011.0 |